Location: Blazny
(46.0612°N, 84.4033°W)
Time: 00:30:04
(UTC-04:00)

ISS - Visible Passes

Search period start: 15 September 2024 00:00
Search period end: 25 September 2024 00:00
Orbit: 414 x 424 km, 51.6° (Epoch: 15 September)

Date Brightness Start Highest point End Pass type
(mag) Time Alt. Az. Time Alt. Az. Time Alt. Az.
15 Sep -2.6 21:40:34 10° W 21:43:45 39° NNW 21:44:40 32° NNE visible
16 Sep -3.0 20:52:54 10° W 20:56:12 50° NNW 20:59:05 13° NE visible
16 Sep -1.2 22:30:27 10° WNW 22:32:03 21° NW 22:32:03 21° NW visible
17 Sep -2.3 21:42:51 10° WNW 21:45:54 31° N 21:46:27 29° NNE visible
18 Sep -2.3 20:55:17 10° WNW 20:58:23 34° N 21:00:50 14° NE visible
18 Sep -0.9 22:32:36 10° WNW 22:33:48 19° NW 22:33:48 19° NW visible
19 Sep -2.6 20:07:43 10° W 20:10:55 39° NNW 20:14:07 10° ENE visible
19 Sep -2.3 21:45:12 10° WNW 21:48:12 31° N 21:48:12 31° N visible
20 Sep -2.3 20:57:46 10° WNW 21:00:48 30° N 21:02:37 18° NE visible
20 Sep -0.7 22:34:46 10° WNW 22:35:35 16° NW 22:35:35 16° NW visible
21 Sep -2.3 20:10:21 10° WNW 20:13:23 31° N 20:16:26 10° ENE visible
21 Sep -2.4 21:47:30 10° WNW 21:50:03 36° NNW 21:50:03 36° NNW visible
22 Sep -2.6 21:00:15 10° WNW 21:03:23 34° N 21:04:33 26° NE visible
22 Sep -0.5 22:37:03 10° WNW 22:37:31 13° WNW 22:37:31 13° WNW visible
23 Sep -2.4 20:12:59 10° WNW 20:16:03 31° N 20:19:06 10° ENE visible
23 Sep -2.3 21:49:51 10° WNW 21:52:05 38° NW 21:52:05 38° NW visible
24 Sep -3.4 21:02:43 10° WNW 21:06:02 53° NNE 21:06:42 44° ENE visible
